[[{"header":{"parameterUnit":"m.s-1","parameterCategory":1,"la1":30.2991,"la2":30.254,"lo1":-89.0895,"lo2":-89.0444,"dy":0.0017,"dx":0.0017,"nx":28,"ny":28,"refTime":"2023-09-11T21:00:00:Z","depth":0,"parameterNumber":2,"parameterNumberName":"U-component_of_WINDS"},"data":[0,0,0,0,0,0,0,0,0,0,0,0,0,0,0,0,0,0,0,0,0,0,0,0,0,0,0,0,0,0,0,0,0,0,0,0,0,0,0,0,0,0,0,0,0,0,0,0,0,0,0,0,0,0,0,0,0,0,-0.7217,-0.7216,0,-0.711,-0.7109,-0.7108,-0.7068,-0.7068,-0.7069,-0.7069,-0.6958,-0.6955,-0.6952,0,0,0,0,0,0,0,0,0,0,0,0,0,-0.7386,-0.7383,-0.7217,-0.7216,-0.7214,-0.7111,-0.7109,-0.7108,-0.7068,-0.7068,-0.7069,-0.7069,-0.6959,-0.6955,-0.6951,0,0,0,0,0,0,0,0,0,0,0,0,0,-0.7299,-0.7382,-0.7217,-0.7182,-0.7178,-0.7111,-0.7109,-0.7107,-0.7068,-0.7068,-0.7069,-0.7069,-0.696,-0.6956,-0.6951,-0.691,0,0,-0.6936,-0.6934,0,0,0,0,0,0,0,0,-0.7304,-0.7293,-0.7189,-0.7184,-0.718,-0.7103,-0.7128,-0.7041,-0.7068,-0.711,-0.7069,-0.707,-0.7006,-0.6997,-0.6976,-0.6905,-0.69,-0.6935,-0.6932,-0.693,-0.6929,0,0,0,0,0,0,0,-0.731,-0.7297,-0.7175,-0.7187,-0.7182,-0.7172,-0.716,-0.7111,-0.7056,-0.7106,-0.7103,-0.7091,-0.7003,-0.6981,-0.6973,-0.6899,-0.6936,-0.6931,-0.6928,-0.6926,-0.6791,-0.679,0,0,0,0,0,0,-0.7322,-0.7303,-0.7178,-0.7172,-0.7244,-0.7168,-0.7155,-0.7127,-0.7056,-0.7046,-0.709,-0.7089,-0.6989,-0.6979,-0.6969,-0.6918,-0.693,-0.6926,-0.6923,-0.6792,-0.6791,-0.679,0,0,0,0,0,0,-0.7326,-0.7312,-0.7182,-0.7236,-0.7219,-0.7165,-0.7134,-0.7125,-0.7102,-0.7045,-0.7035,-0.7078,-0.6989,-0.6976,-0.6926,-0.6913,-0.6924,-0.6919,-0.6792,-0.6791,-0.6791,-0.6814,0,0,0,0,0,0,-0.7331,-0.7313,-0.7297,-0.7236,-0.7216,-0.7141,-0.7133,-0.7122,-0.7094,-0.7091,-0.703,-0.702,-0.6988,-0.6933,-0.6921,-0.6907,-0.6915,-0.6793,-0.6792,-0.6791,-0.6815,-0.6814,-0.6814,0,0,0,0,0,-0.7337,-0.7307,-0.7296,-0.7282,-0.7195,-0.714,-0.7129,-0.7093,-0.7093,-0.7077,-0.704,-0.7022,-0.6917,-0.6929,-0.6914,-0.6898,-0.6794,-0.6792,-0.6791,-0.6815,-0.6814,-0.6814,0,0,0,0,0,0,-0.7367,-0.7299,-0.7286,-0.7235,-0.7194,-0.7134,-0.7112,-0.7094,-0.7051,-0.7051,-0.7008,-0.6994,-0.6948,-0.6918,-0.6932,-0.6856,-0.6854,-0.685,-0.6877,-0.6877,-0.6877,-0.6884,-0.6911,0,0,0,0,0,-0.7368,-0.733,-0.7272,-0.7233,-0.7213,-0.7166,-0.7141,-0.7117,-0.7072,-0.7054,-0.7014,-0.6971,-0.6928,-0.6901,-0.6858,-0.6811,-0.6797,-0.6793,-0.6793,-0.6793,-0.6789,-0.6763,-0.676,-0.6785,-0.6785,-0.6785,0,0,-0.7369,-0.7327,-0.7305,-0.7238,-0.7203,-0.7164,-0.7152,-0.711,-0.7081,-0.7048,-0.6998,-0.6968,-0.6917,-0.6868,-0.6844,-0.6842,-0.678,-0.6791,-0.6792,-0.6788,-0.6761,-0.6759,-0.6757,-0.6784,-0.6785,-0.6785,0,0,-0.7351,-0.7316,-0.728,-0.7246,-0.7194,-0.7163,-0.7155,-0.7097,-0.7076,-0.7026,-0.7,-0.6965,-0.6892,-0.6857,-0.683,-0.6801,-0.6783,-0.6789,-0.6788,-0.6762,-0.676,-0.6759,-0.6748,-0.6745,-0.6786,-0.6786,-0.6786,0,-0.7359,-0.7299,-0.7263,-0.7224,-0.7195,-0.7165,-0.7129,-0.7097,-0.7034,-0.7015,-0.7013,-0.6922,-0.6886,-0.6829,-0.6822,-0.6801,-0.679,-0.6795,-0.6764,-0.6761,-0.6759,-0.6749,-0.6745,-0.6787,-0.6786,-0.6786,-0.6786,0,-0.7312,-0.7271,-0.7248,-0.7189,-0.7158,-0.712,-0.7079,-0.7052,-0.7031,-0.7001,-0.6951,-0.6907,-0.6855,-0.684,-0.6819,-0.6781,-0.6781,-0.6772,-0.6769,-0.6758,-0.6748,-0.6744,-0.6788,-0.6788,-0.6787,-0.6787,0,0,-0.7308,-0.723,-0.7223,-0.7196,-0.7137,-0.7105,-0.7066,-0.7017,-0.6995,-0.6953,-0.6919,-0.686,-0.6852,-0.6821,-0.6796,-0.6774,-0.6755,-0.6768,-0.6766,-0.6767,-0.671,-0.6717,-0.6713,-0.6744,-0.6743,-0.6742,-0.6715,0,-0.7282,-0.7212,-0.7179,-0.7123,-0.7086,-0.7058,-0.7024,-0.6985,-0.6956,-0.692,-0.6888,-0.6846,-0.6839,-0.6821,-0.6798,-0.6763,-0.6743,-0.6764,-0.6712,-0.6711,-0.6725,-0.6708,-0.6714,-0.669,-0.671,-0.671,-0.6709,0,-0.7242,-0.7201,-0.7142,-0.7089,-0.7072,-0.7042,-0.6995,-0.6961,-0.6916,-0.6897,-0.6864,-0.684,-0.6799,-0.6801,-0.6743,-0.6759,-0.6736,-0.6716,-0.6714,-0.6707,-0.6709,-0.67,-0.6681,-0.6678,-0.6703,-0.6703,-0.6704,0,-0.7245,-0.7175,-0.7131,-0.7109,-0.7046,-0.7026,-0.6999,-0.6955,-0.6927,-0.6886,-0.6868,-0.6823,-0.6798,-0.6764,-0.6729,-0.6733,-0.6675,-0.6673,-0.6658,-0.6659,-0.6646,-0.6647,-0.6623,-0.6633,-0.6633,-0.6633,-0.6633,0,-0.7219,-0.7184,-0.7131,-0.7104,-0.7064,-0.7028,-0.6989,-0.696,-0.6922,-0.6888,-0.6862,-0.6831,-0.6787,-0.6752,-0.6724,-0.6682,-0.667,-0.6654,-0.6647,-0.6656,-0.6658,-0.6639,-0.664,-0.6632,-0.6632,-0.6632,-0.6632,0,-0.7215,-0.7178,-0.7128,-0.7074,-0.7059,-0.7032,-0.6986,-0.6958,-0.6929,-0.6888,-0.6876,-0.683,-0.6787,-0.6749,-0.6692,-0.6673,-0.6629,-0.6621,-0.6645,-0.6641,-0.6628,-0.6629,-0.659,-0.6584,-0.6598,-0.6598,-0.6598,0,-0.72,-0.7173,-0.7116,-0.7092,-0.7066,-0.7027,-0.7,-0.6964,-0.6936,-0.6884,-0.6863,-0.6818,-0.678,-0.6712,-0.6674,-0.663,-0.662,-0.661,-0.6613,-0.6624,-0.662,-0.6622,-0.6619,-0.6609,-0.6609,-0.6609,-0.6609,0,-0.7178,-0.7162,-0.7124,-0.708,-0.7048,-0.7011,-0.6974,-0.6956,-0.6912,-0.6883,-0.6839,-0.681,-0.6752,-0.6707,-0.666,-0.6632,-0.6613,-0.6609,-0.6603,-0.6611,-0.6626,-0.6618,-0.6644,-0.6609,-0.6609,-0.6609,-0.6609,-0.6609,-0.7168,-0.7143,-0.7099,-0.7058,-0.7026,-0.6992,-0.6964,-0.6932,-0.6895,-0.6845,-0.6826,-0.6781,-0.6739,-0.6673,-0.6646,-0.661,-0.6607,-0.6598,-0.6596,-0.6594,-0.6596,-0.6633,-0.6601,-0.6601,-0.6601,-0.6601,-0.6601,0,-0.7145,-0.7116,-0.7078,-0.7027,-0.6995,-0.6982,-0.694,-0.6914,-0.6875,-0.6837,-0.68,-0.675,-0.6708,-0.6667,-0.6622,-0.6602,-0.6592,-0.6591,-0.6592,-0.6586,-0.6601,-0.6611,-0.66,-0.66,-0.66,-0.66,-0.66,-0.66,-0.7129,-0.7086,-0.7065,-0.7006,-0.6977,-0.6933,-0.691,-0.6879,-0.6849,-0.6794,-0.6759,-0.6733,-0.6694,-0.6647,-0.6607,-0.6596,-0.6581,-0.6582,-0.6569,-0.6584,-0.6585,-0.6585,-0.6594,-0.658,-0.6579,-0.6557,-0.6557,-0.6556]},{"header":{"parameterUnit":"m.s-1","parameterCategory":1,"la1":30.2991,"la2":30.254,"lo1":-89.0895,"lo2":-89.0444,"dy":0.0017,"dx":0.0017,"nx":28,"ny":28,"refTime":"2023-09-11T21:00:00:Z","depth":0,"parameterNumber":3,"parameterNumberName":"V-component_of_WINDS"},"data":[0,0,0,0,0,0,0,0,0,0,0,0,0,0,0,0,0,0,0,0,0,0,0,0,0,0,0,0,0,0,0,0,0,0,0,0,0,0,0,0,0,0,0,0,0,0,0,0,0,0,0,0,0,0,0,0,0,0,3.769,3.769,0,3.7695,3.7695,3.7695,3.7721,3.7721,3.7722,3.7722,3.7723,3.7723,3.7722,0,0,0,0,0,0,0,0,0,0,0,0,0,3.7699,3.7699,3.769,3.769,3.769,3.7695,3.7695,3.7695,3.772,3.7721,3.7722,3.7723,3.7723,3.7723,3.7722,0,0,0,0,0,0,0,0,0,0,0,0,0,3.7699,3.7699,3.769,3.7704,3.7705,3.7695,3.7695,3.7695,3.772,3.7721,3.7722,3.7723,3.7724,3.7723,3.7722,3.7698,0,0,3.7719,3.7719,0,0,0,0,0,0,0,0,3.7699,3.7699,3.7702,3.7703,3.7704,3.7708,3.7699,3.7696,3.772,3.7714,3.7722,3.7723,3.7717,3.7717,3.7716,3.7698,3.7698,3.7719,3.7719,3.7718,3.7718,0,0,0,0,0,0,0,3.7699,3.7698,3.7692,3.7702,3.7703,3.7708,3.7709,3.7698,3.771,3.7715,3.7717,3.7717,3.7718,3.7716,3.7716,3.7698,3.7719,3.7719,3.7718,3.7718,3.7664,3.7663,0,0,0,0,0,0,3.7698,3.7698,3.7692,3.7692,3.7704,3.7707,3.7709,3.7706,3.7711,3.7712,3.7716,3.7718,3.7717,3.7717,3.7716,3.769,3.7718,3.7718,3.7717,3.7665,3.7664,3.7663,0,0,0,0,0,0,3.7698,3.7697,3.7692,3.7696,3.7696,3.7706,3.7703,3.7706,3.7704,3.7712,3.7714,3.7713,3.7718,3.7717,3.7703,3.769,3.7717,3.7717,3.7666,3.7664,3.7663,3.7637,0,0,0,0,0,0,3.7698,3.7697,3.7688,3.7696,3.7695,3.768,3.7702,3.7705,3.7703,3.7706,3.7709,3.771,3.7719,3.7704,3.7702,3.769,3.7716,3.7667,3.7665,3.7663,3.7639,3.7635,3.7631,0,0,0,0,0,3.7698,3.7679,3.7688,3.7687,3.7685,3.7679,3.7679,3.769,3.7702,3.7693,3.7699,3.771,3.7692,3.7703,3.7701,3.7688,3.7668,3.7666,3.7664,3.7641,3.7636,3.7631,0,0,0,0,0,0,3.7668,3.7681,3.769,3.7673,3.7675,3.7683,3.7673,3.7684,3.7681,3.7683,3.7696,3.7697,3.7681,3.7683,3.7694,3.7666,3.7682,3.7679,3.7665,3.7661,3.7657,3.7657,3.7715,0,0,0,0,0,3.766,3.7655,3.7666,3.765,3.7651,3.7662,3.7659,3.7668,3.767,3.767,3.7674,3.7674,3.7669,3.7665,3.766,3.764,3.7641,3.763,3.7626,3.7622,3.762,3.7611,3.7606,3.7656,3.7656,3.7656,0,0,3.7643,3.7649,3.7644,3.7644,3.7647,3.764,3.7662,3.7654,3.7649,3.7668,3.7656,3.7659,3.766,3.7644,3.7636,3.7644,3.7607,3.762,3.7617,3.7616,3.7608,3.7603,3.7599,3.7654,3.7654,3.7655,0,0,3.7608,3.7612,3.76,3.7603,3.7607,3.7615,3.7612,3.7619,3.7622,3.7611,3.7625,3.7619,3.7609,3.761,3.7609,3.7577,3.7587,3.7575,3.7554,3.7545,3.7541,3.7538,3.7527,3.7523,3.7572,3.7572,3.7572,0,3.7585,3.7578,3.7592,3.7584,3.7584,3.7603,3.7591,3.7592,3.7594,3.7593,3.7602,3.7592,3.7593,3.7578,3.757,3.7569,3.7566,3.7574,3.7541,3.7538,3.7535,3.7525,3.752,3.7571,3.7571,3.7571,3.7571,0,3.755,3.7545,3.7534,3.7538,3.7537,3.7526,3.7539,3.7535,3.7544,3.7551,3.7539,3.7543,3.754,3.7537,3.7545,3.7523,3.7528,3.7539,3.7555,3.7528,3.7519,3.7515,3.7568,3.7569,3.7569,3.757,0,0,3.7495,3.7509,3.7505,3.7508,3.7515,3.751,3.7501,3.75,3.7497,3.7498,3.7491,3.7483,3.7494,3.7493,3.7501,3.7493,3.7469,3.7505,3.7506,3.7499,3.7446,3.7438,3.7433,3.7476,3.7475,3.7475,3.7446,0,3.7463,3.745,3.7463,3.7447,3.7443,3.7462,3.7454,3.7457,3.7463,3.7459,3.7466,3.746,3.7475,3.7475,3.7467,3.7473,3.7458,3.7475,3.7469,3.7469,3.7469,3.7428,3.7419,3.7392,3.7442,3.7442,3.7441,0,3.7423,3.7425,3.7409,3.7419,3.7417,3.741,3.7411,3.7408,3.7411,3.7417,3.7417,3.7428,3.7419,3.7435,3.7424,3.7435,3.7434,3.7436,3.7435,3.7435,3.7453,3.7428,3.7383,3.7379,3.7435,3.7436,3.7436,0,3.7386,3.7384,3.7375,3.7376,3.7387,3.7382,3.7386,3.7391,3.739,3.7391,3.739,3.7389,3.7388,3.7387,3.7397,3.7408,3.7384,3.7401,3.7388,3.7388,3.7382,3.7383,3.7338,3.738,3.738,3.738,3.7381,0,3.7349,3.7338,3.7359,3.7353,3.7342,3.7357,3.7346,3.7352,3.7356,3.7352,3.7367,3.7362,3.7376,3.7372,3.738,3.737,3.7369,3.7373,3.7375,3.7372,3.7372,3.7371,3.7373,3.7379,3.738,3.738,3.738,0,3.7306,3.7319,3.731,3.7322,3.7325,3.7316,3.7326,3.7321,3.7329,3.7323,3.7322,3.7334,3.7331,3.7342,3.7339,3.7345,3.733,3.7335,3.7329,3.7331,3.7318,3.7319,3.7272,3.7266,3.7311,3.7311,3.7311,0,3.7281,3.7274,3.7286,3.7285,3.7289,3.7287,3.7287,3.7302,3.7301,3.7306,3.73,3.7299,3.7298,3.7292,3.73,3.7299,3.7304,3.7288,3.7304,3.7301,3.7305,3.7306,3.7305,3.7284,3.7283,3.7283,3.7283,0,3.7237,3.7244,3.7245,3.7248,3.7248,3.725,3.7253,3.7251,3.7267,3.7266,3.7264,3.7263,3.7263,3.7261,3.7262,3.7265,3.7276,3.7278,3.7275,3.7271,3.7269,3.7271,3.7321,3.7279,3.7279,3.7279,3.7279,3.728,3.7203,3.7198,3.7207,3.7207,3.7212,3.7215,3.7211,3.722,3.7219,3.7221,3.7229,3.7226,3.7231,3.7234,3.7236,3.7233,3.7241,3.7236,3.7235,3.7234,3.7232,3.7269,3.7233,3.7233,3.7233,3.7233,3.7233,0,3.716,3.7167,3.7167,3.7173,3.7173,3.7186,3.7191,3.719,3.7187,3.7192,3.7192,3.719,3.7189,3.7198,3.7198,3.7194,3.7199,3.7193,3.7194,3.7195,3.7225,3.7228,3.7189,3.7189,3.7189,3.7189,3.7189,3.7189,3.7138,3.7131,3.714,3.7136,3.7143,3.7141,3.7143,3.7146,3.715,3.7148,3.7148,3.7154,3.7161,3.7162,3.7161,3.7164,3.7163,3.7156,3.716,3.7188,3.7192,3.7196,3.7199,3.7155,3.7155,3.713,3.713,3.713]}]]